Weather History for Nassau, Bahamas

Change the Weather History Date:

Sunday, August 17, 2014

  Actual Average Record
Temperature  
Mean Temperature 86 °F -  
Max Temperature 91 °F 88 °F 96 °F (2011)
Min Temperature 80 °F 74 °F 75 °F (2002)
Cooling Degree Days 20    
Growing Degree Days 36 (Base 50)    
Moisture  
Dew Point 75 °F    
Average Humidity 68    
Maximum Humidity 79    
Minimum Humidity 53    
Precipitation  
Precipitation 0.00 in 0.25 in - ()
Sea Level Pressure  
Sea Level Pressure 30.10 in    
Wind  
Wind Speed 5 mph ()    
Max Wind Speed 12 mph    
Max Gust Speed -    
Visibility 6.8 miles    
Events Rain    
Averages and records for this station are not official NWS values.
T = Trace of Precipitation, MM = Missing Value Source: Averaged Metar Reports

Daily Weather History Graph

Daily Weather History Graph

Search for Another Location

Airport:

Trip Planner

Search our weather history database for the weather conditions in past years. The results will help you decide how hot, cold, wet, or windy it might be!

Date:

Astronomy

Aug. 17, 2014 Rise Set
Actual Time 6:44 AM EDT 7:42 PM EDT
Civil Twilight 6:20 AM EDT 8:06 PM EDT
Nautical Twilight 5:52 AM EDT 8:34 PM EDT
Astronomical Twilight 5:23 AM EDT 9:03 PM EDT
Moon 12:11 AM EDT (8/17) 1:40 PM EDT (8/17)
Length of Visible Light 13h 45m
Length of Day
12h 58m
Waning Gibbous, 48% of the Moon is Illuminated
Aug 17
Waning Gibbous
Aug 25
New
Sep 2
First Quarter
Sep 8
Full
Sep 15
Last Quarter

Hourly Weather History & Observations

Time (EDT) Temp. Heat Index Dew Point Humidity Pressure Visibility Wind Dir Wind Speed Gust Speed Precip Events Conditions
12:00 AM 84.2 °F 90.9 °F 73.4 °F 70% 30.14 in - East 4.6 mph - N/A   Clear
1:00 AM 84.2 °F 90.9 °F 73.4 °F 70% 30.12 in 6.2 mi East 3.5 mph - N/A   Scattered Clouds
2:00 AM 84 °F - 77 °F 74% 30.10 in 10 mi ESE 6.9 mph - -   Scattered Clouds
2:00 AM 84.2 °F 94.1 °F 77.0 °F 79% 30.10 in 6.2 mi ESE 6.9 mph - N/A   Partly Cloudy
3:00 AM 84.2 °F 92.3 °F 75.2 °F 74% 30.07 in 6.2 mi ESE 9.2 mph - N/A   Partly Cloudy
4:00 AM 84.2 °F 92.3 °F 75.2 °F 74% 30.06 in 6.2 mi SE 11.5 mph - N/A   Partly Cloudy
7:00 AM 82.4 °F 89.5 °F 75.2 °F 79% 30.09 in 6.2 mi SSE 3.5 mph - N/A   Scattered Clouds
8:00 AM 84 °F - 76 °F 72% 30.09 in 9 mi SE 3.5 mph - -   Partly Cloudy
8:00 AM 84.2 °F 94.1 °F 77.0 °F 79% 30.11 in 6.2 mi SE 3.5 mph - N/A   Scattered Clouds
9:00 AM 86.0 °F 93.4 °F 73.4 °F 66% 30.12 in 6.2 mi SE 6.9 mph - N/A   Scattered Clouds
11:00 AM 87.8 °F 97.6 °F 75.2 °F 66% 30.14 in 6.2 mi SSE 6.9 mph - N/A   Partly Cloudy
12:00 PM 88 °F - 76 °F 59% 30.15 in 9 mi SSE 6.9 mph - -   Scattered Clouds
12:00 PM 87.8 °F 93.8 °F 71.6 °F 58% 30.14 in 6.2 mi SSE 8.1 mph - N/A   Scattered Clouds
1:00 PM 89.6 °F 99.8 °F 75.2 °F 62% 30.12 in 6.2 mi SE 8.1 mph - N/A   Scattered Clouds
2:00 PM 91 °F - 76 °F 53% 30.12 in 9 mi SE 8.1 mph - -   Partly Cloudy
2:00 PM 91.4 °F 105.1 °F 77.0 °F 63% 30.12 in 6.2 mi SE 8.1 mph - N/A   Scattered Clouds
3:00 PM 91.4 °F 100.1 °F 73.4 °F 55% 30.10 in 6.2 mi SE 9.2 mph - N/A   Scattered Clouds
4:00 PM 89.6 °F 96.2 °F 71.6 °F 55% 30.09 in 6.2 mi SE 8.1 mph - N/A   Scattered Clouds
5:00 PM 91.4 °F 102.5 °F 75.2 °F 59% 30.08 in 6.2 mi North - - N/A   Scattered Clouds
6:00 PM 87.8 °F 95.6 °F 73.4 °F 62% 30.07 in 6.2 mi East 4.6 mph - N/A   Scattered Clouds
8:00 PM 86 °F - 76 °F 66% 30.07 in 8 mi NE 2.3 mph - -  
8:00 PM 86.0 °F 96.9 °F 77.0 °F 74% 30.07 in 6.2 mi Variable 2.3 mph - N/A   Scattered Clouds
9:00 PM 86.0 °F 95.1 °F 75.2 °F 70% 30.08 in 6.2 mi Variable 2.3 mph - N/A   Scattered Clouds
10:00 PM 86.0 °F 95.1 °F 75.2 °F 70% 30.09 in 6.2 mi North - - N/A Rain Light Rain Showers
11:00 PM 85 °F - 78 °F 73% 30.09 in 8 mi East 6.9 mph - - Rain Light Rain Showers
11:00 PM 84.2 °F 94.1 °F 77.0 °F 79% 30.09 in 6.2 mi East 6.9 mph - N/A   Mostly Cloudy